| time (UTC) | temp F | wind direction | speed MPH | gust MPH | rain 1hr in | rain 24hr in | rain mn in | humidity % | barometer mb |
| 20260505190303 | 53 | 64 | 1.0 | 7.0 | 0.00 | 0.42 | 0.15 | 88 | 1010.0 |
| 20260505180304 | 54 | 75 | 3.0 | 10.0 | 0.00 | 0.42 | 0.15 | 86 | 1009.9 |
| 20260505160804 | 54 | 79 | 3.0 | 8.0 | 0.00 | 0.42 | 0.15 | 89 | 1010.3 |
| 20260505160304 | 54 | 80 | 2.0 | 9.0 | 0.00 | 0.42 | 0.15 | 89 | 1010.4 |
| 20260505150804 | 54 | 50 | 2.0 | 5.0 | 0.00 | 0.42 | 0.15 | 90 | 1010.7 |
| 20260505150303 | 53 | 89 | 3.0 | 9.0 | 0.00 | 0.42 | 0.15 | 89 | 1010.7 |
| 20260505110303 | 50 | 87 | 2.0 | 9.0 | 0.00 | 0.47 | 0.15 | 97 | 1011.9 |
| 20260505100304 | 50 | 81 | 2.0 | 12.0 | 0.00 | 0.47 | 0.15 | 97 | 1012.0 |
| 20260505090804 | 49 | 73 | 3.0 | 8.0 | 0.01 | 0.47 | 0.15 | 97 | 1012.1 |
| 20260505080804 | 49 | 68 | 3.0 | 8.0 | 0.00 | 0.46 | 0.14 | 97 | 1012.1 |
| 20260505070803 | 49 | 67 | 2.0 | 6.0 | 0.00 | 0.46 | 0.14 | 97 | 1012.0 |
| 20260505050804 | 50 | 61 | 1.0 | 5.0 | 0.00 | 0.46 | 0.14 | 97 | 1012.0 |
| 20260505050304 | 50 | 82 | 2.0 | 8.0 | 0.00 | 0.46 | 0.14 | 97 | 1012.1 |
| 20260505040804 | 51 | 5 | 1.0 | 3.0 | 0.00 | 0.46 | 0.14 | 97 | 1011.9 |
| 20260505030804 | 52 | 45 | 2.0 | 5.0 | 0.00 | 0.46 | 0.14 | 97 | 1012.1 |
| 20260505020804 | 53 | 64 | 2.0 | 5.0 | 0.00 | 0.47 | 0.14 | 97 | 1012.2 |
| 20260505020303 | 53 | 64 | 4.0 | 12.0 | 0.00 | 0.47 | 0.14 | 97 | 1012.1 |
| 20260504230803 | 56 | 1 | 2.0 | 7.0 | 0.04 | 0.39 | 0.06 | 96 | 1012.9 |
| 20260504220809 | 57 | 317 | 2.0 | 3.0 | 0.08 | 0.35 | 0.02 | 96 | 1013.3 |
| 20260504220303 | 57 | 332 | 3.0 | 6.0 | 0.07 | 0.34 | 0.01 | 96 | 1013.3 |
| 20260504210803 | 58 | 281 | 1.0 | 3.0 | 0.08 | 0.27 | 0.27 | 95 | 1013.5 |
| 20260504200803 | 60 | 196 | 0.0 | 3.0 | 0.13 | 0.19 | 0.19 | 93 | 1013.4 |
| 20260504200304 | 60 | 196 | 1.0 | 6.0 | 0.08 | 0.14 | 0.14 | 93 | 1013.4 |